Location: Moy Burn
(57.3833°N, 4.0667°W)
Time: 10:16:30
(UTC+00:00)

Cosmos 1470 Rocket - Pass Details

Date: 08 August 2020
Orbit: 603 x 634 km, 82.5° (Epoch: 18 September)

Event Time Altitude Azimuth Distance (km) Brightness Sun altitude
Exits shadow 21:19:32 - 166° (SSE) 2,323 6.0 -7.7°
Reaches altitude 10° 21:20:22 10° 163° (SSE) 1,996 5.6 -7.8°
Maximum altitude 21:24:32 41° 93° (E) 905 4.1 -8.1°
Drops below altitude 10° 21:28:40 10° 24° (NNE) 1,993 6.5 -8.5°
Sets 21:30:58 0° 17° (NNE) 2,898 7.5 -8.7°
